{"data":{"norad_id":65307,"intl_designator":"2025-187C","name":"HULIANWANG DIGUI-75","alt_names":[],"object_type":"PAYLOAD","status":"ACTIVE","operator":null,"country":"PRC","launch_date":"2025-08-25","launch_site_code":"WSC","launch_vehicle":null,"mission":null,"orbit_class":"UNKNOWN","rcs_meters":null,"size_class":null,"mass_kg":null,"dimensions":null,"purposes":[],"wikipedia_slug":null,"has_3d_model":false,"image_url":null,"decayed_at":null,"tle_current":{"epoch":"2026-09-21T22:26:51.328320Z","epoch_age_seconds":38241,"freshness":"FRESH","line1":"1 65307U 25187C   26264.93531630 -.00000112  00000+0  25493-4 0  9995","line2":"2 65307  50.0077 218.7127 0000747   4.7073 355.3806 13.29325566 52570","mean_motion":13.29325566,"eccentricity":7.47e-5,"inclination_deg":50.0077,"raan_deg":218.7127,"arg_perigee_deg":4.7073,"mean_anomaly_deg":355.3806,"bstar":2.5493e-5,"rev_number":5257,"period_min":108.32560787445,"perigee_km":1148.7459100764,"apogee_km":1149.8705103908,"semimajor_km":7527.4452102336,"source":"CELESTRAK","updated_at":"2026-09-22T09:00:30.256740Z"}}}